Charleston, SC

12:41 AM EDT on October 20, 2017 (GMT -0400)
Charleston Executive

Weather History for KJZI - March, 2014

Change the Weather History Date:

Thursday, March 6, 2014

  Actual Average (KCHS) Record (KCHS)
Temperature  
Mean Temperature 42 °F -  
Max Temperature 44 °F 66 °F 85 °F (1976)
Min Temperature 39 °F 45 °F 21 °F (1960)
Degree Days  
Heating Degree Days 24    
Moisture  
Dew Point 43 °F    
Average Humidity 100    
Maximum Humidity 100    
Minimum Humidity 100    
Precipitation  
Precipitation 0.00 in - - ()
Sea Level Pressure  
Sea Level Pressure 30.04 in    
Wind  
Wind Speed 12 mph (NNE)    
Max Wind Speed 22 mph    
Max Gust Speed 28 mph    
Visibility 6 miles    
Events Rain    
Averages and records for this station are not official NWS values.
T = Trace of Precipitation, MM = Missing Value Source: NWS Daily Summary

Daily Weather History Graph

Daily Weather History Graph

Search for Another Location

Airport or City:

Trip Planner

Search our weather history database for the weather conditions in past years. The results will help you decide how hot, cold, wet, or windy it might be!

Date:

Astronomy

Mar. 06, 2014 Rise Set
Actual Time 6:41 AM EST 6:21 PM EST
Civil Twilight 6:17 AM EST 6:45 PM EST
Nautical Twilight 5:48 AM EST 7:14 PM EST
Astronomical Twilight 5:20 AM EST 7:42 PM EST
Moon 10:06 AM EST (3/6) No Moon Set
Length of Visible Light 12h 28m
Length of Day
11h 39m
Waxing Crescent, 32% of the Moon is Illuminated
Mar 6
Waxing Crescent
Mar 8
First Quarter
Mar 16
Full
Mar 23
Last Quarter
Mar 30
New

Hourly Weather History & Observations

Time (EST) Temp. Windchill Dew Point Humidity Pressure Visibility Wind Dir Wind Speed Gust Speed Precip Events Conditions
12:15 AM 44.6 °F 39.7 °F 44.6 °F 100% 30.19 in 10.0 mi North 9.2 mph - 0.00 in   Overcast
12:35 AM 44.6 °F 39.7 °F 44.6 °F 100% 30.18 in 10.0 mi NNE 9.2 mph - 0.00 in   Overcast
12:55 AM 44.6 °F 39.2 °F 44.6 °F 100% 30.18 in 10.0 mi NNE 10.4 mph - 0.00 in   Overcast
1:15 AM 44.6 °F 40.2 °F 44.6 °F 100% 30.18 in 10.0 mi NNE 8.1 mph - 0.00 in   Overcast
1:35 AM 42.8 °F 37.0 °F 42.8 °F 100% 30.17 in 10.0 mi NNE 10.4 mph - 0.00 in   Overcast
1:55 AM 44.6 °F 39.7 °F 44.6 °F 100% 30.16 in 9.0 mi NNE 9.2 mph - 0.00 in   Overcast
2:15 AM 42.8 °F 37.0 °F 42.8 °F 100% 30.17 in 7.0 mi NNE 10.4 mph - 0.00 in   Overcast
2:35 AM 42.8 °F 37.5 °F 42.8 °F 100% 30.17 in 7.0 mi NNE 9.2 mph - 0.00 in   Overcast
2:55 AM 42.8 °F 35.8 °F 42.8 °F 100% 30.16 in 7.0 mi NNE 13.8 mph - 0.00 in   Overcast
3:15 AM 42.8 °F 36.2 °F 42.8 °F 100% 30.14 in 8.0 mi NNE 12.7 mph 17.3 mph 0.00 in   Overcast
3:35 AM 42.8 °F 37.5 °F 42.8 °F 100% 30.14 in 8.0 mi NNE 9.2 mph - 0.00 in   Overcast
3:55 AM 42.8 °F 36.6 °F 42.8 °F 100% 30.14 in 7.0 mi NNE 11.5 mph - 0.00 in   Overcast
4:15 AM 42.8 °F 37.0 °F 42.8 °F 100% 30.14 in 4.0 mi NNE 10.4 mph - 0.00 in   Overcast
4:35 AM 42.8 °F 37.0 °F 42.8 °F 100% 30.13 in 5.0 mi NNE 10.4 mph 18.4 mph 0.00 in   Overcast
4:55 AM 42.8 °F 35.8 °F 42.8 °F 100% 30.13 in 8.0 mi NNE 13.8 mph 18.4 mph 0.00 in   Overcast
5:15 AM 42.8 °F 36.2 °F 42.8 °F 100% 30.12 in 7.0 mi NNE 12.7 mph - 0.00 in   Overcast
5:35 AM 42.8 °F 37.0 °F 42.8 °F 100% 30.13 in 8.0 mi NNE 10.4 mph 17.3 mph 0.00 in   Overcast
5:55 AM 42.8 °F 36.2 °F 42.8 °F 100% 30.12 in 8.0 mi NNE 12.7 mph 16.1 mph 0.00 in   Overcast
6:15 AM 42.8 °F 36.2 °F 42.8 °F 100% 30.12 in 10.0 mi NNE 12.7 mph 17.3 mph 0.00 in   Overcast
6:35 AM 42.8 °F 36.6 °F 42.8 °F 100% 30.13 in 10.0 mi NNE 11.5 mph 18.4 mph 0.00 in   Overcast
6:55 AM 42.8 °F 37.0 °F 42.8 °F 100% 30.14 in 10.0 mi North 10.4 mph - 0.00 in   Overcast
7:15 AM 42.8 °F 35.1 °F 42.8 °F 100% 30.14 in 9.0 mi NNE 16.1 mph 20.7 mph 0.00 in   Overcast
7:35 AM 42.8 °F 35.8 °F 42.8 °F 100% 30.14 in 5.0 mi NNE 13.8 mph 18.4 mph 0.00 in   Overcast
7:55 AM 42.8 °F 36.6 °F 42.8 °F 100% 30.15 in 6.0 mi NNE 11.5 mph - 0.00 in   Overcast
8:15 AM 42.8 °F 36.6 °F 42.8 °F 100% 30.15 in 5.0 mi NNE 11.5 mph - 0.00 in   Overcast
8:35 AM 42.8 °F 36.2 °F 42.8 °F 100% 30.15 in 7.0 mi NNE 12.7 mph 17.3 mph 0.00 in   Overcast
8:55 AM 42.8 °F 35.8 °F 42.8 °F 100% 30.15 in 8.0 mi NNE 13.8 mph 19.6 mph 0.00 in   Overcast
9:15 AM 42.8 °F 35.4 °F 42.8 °F 100% 30.15 in 5.0 mi NNE 15.0 mph 19.6 mph 0.00 in   Overcast
9:35 AM 41.0 °F 33.9 °F 41.0 °F 100% 30.14 in 3.0 mi NNE 12.7 mph - 0.00 in Rain Light Rain
9:55 AM 41.0 °F 33.1 °F 41.0 °F 100% 30.14 in 1.8 mi NNE 15.0 mph 20.7 mph 0.00 in Rain Rain
10:15 AM 39.2 °F 31.6 °F 39.2 °F 100% 30.14 in 3.0 mi NNE 12.7 mph 21.9 mph 0.00 in Rain Light Rain
10:35 AM 39.2 °F 30.8 °F 39.2 °F 100% 30.13 in 5.0 mi NNE 15.0 mph 24.2 mph 0.00 in   Overcast
10:55 AM 39.2 °F 30.8 °F 39.2 °F 100% 30.12 in 6.0 mi NNE 15.0 mph 23.0 mph 0.00 in   Overcast
11:15 AM 41.0 °F 32.8 °F 41.0 °F 100% 30.12 in 7.0 mi NNE 16.1 mph 23.0 mph 0.00 in   Overcast
11:35 AM 41.0 °F 32.5 °F 41.0 °F 100% 30.11 in 7.0 mi NNE 17.3 mph 23.0 mph 0.00 in   Overcast
11:55 AM 41.0 °F 33.1 °F 41.0 °F 100% 30.10 in 7.0 mi NNE 15.0 mph 20.7 mph 0.00 in   Overcast
12:15 PM 41.0 °F 32.8 °F 41.0 °F 100% 30.10 in 7.0 mi NNE 16.1 mph 21.9 mph 0.00 in   Overcast
12:35 PM 41.0 °F 32.5 °F 41.0 °F 100% 30.08 in 6.0 mi NNE 17.3 mph 23.0 mph 0.00 in   Overcast
12:55 PM 41.0 °F 33.9 °F 41.0 °F 100% 30.10 in 7.0 mi North 12.7 mph - 0.00 in   Overcast
1:15 PM 41.0 °F 32.8 °F 41.0 °F 100% 30.08 in 1.5 mi NNE 16.1 mph 20.7 mph 0.00 in Rain Rain
1:35 PM 41.0 °F 33.1 °F 41.0 °F 100% 30.05 in 1.5 mi NNE 15.0 mph - 0.00 in   Overcast
1:55 PM 41.0 °F 32.8 °F 41.0 °F 100% 30.04 in 2.5 mi NNE 16.1 mph 24.2 mph 0.00 in   Overcast
2:15 PM 41.0 °F 33.9 °F 41.0 °F 100% 30.04 in 2.0 mi NNE 12.7 mph - 0.00 in   Overcast
2:35 PM 41.0 °F 33.1 °F 41.0 °F 100% 30.03 in 1.0 mi NNE 15.0 mph 18.4 mph 0.00 in Rain Heavy Rain
2:55 PM 41.0 °F 33.9 °F 41.0 °F 100% 30.03 in 1.2 mi NNE 12.7 mph 20.7 mph 0.00 in Rain Heavy Rain
3:15 PM 41.0 °F 34.3 °F 41.0 °F 100% 30.02 in 1.2 mi North 11.5 mph 17.3 mph 0.00 in Rain Heavy Rain
3:35 PM 41.0 °F 35.2 °F 41.0 °F 100% 30.01 in 1.5 mi North 9.2 mph 16.1 mph 0.00 in Rain Heavy Rain
3:55 PM 41.0 °F 33.1 °F 41.0 °F 100% 29.99 in 1.8 mi NNE 15.0 mph 18.4 mph 0.00 in Rain Rain
4:15 PM 42.8 °F 36.2 °F 42.8 °F 100% 29.98 in 1.5 mi North 12.7 mph - 0.00 in Rain Rain
4:35 PM 42.8 °F 35.8 °F 42.8 °F 100% 29.96 in 0.8 mi NNE 13.8 mph 21.9 mph 0.00 in Rain Heavy Rain
4:55 PM 42.8 °F 36.2 °F 42.8 °F 100% 29.94 in 1.2 mi NNE 12.7 mph 20.7 mph 0.00 in   Overcast
5:15 PM 42.8 °F 36.2 °F 42.8 °F 100% 29.95 in 2.5 mi North 12.7 mph 19.6 mph 0.00 in   Overcast
5:35 PM 42.8 °F 33.8 °F 42.8 °F 100% 29.91 in 2.0 mi NNE 21.9 mph 26.5 mph 0.00 in   Overcast
5:55 PM 42.8 °F 34.5 °F 42.8 °F 100% 29.92 in 5.0 mi NNE 18.4 mph 27.6 mph 0.00 in Rain Light Rain
6:15 PM 42.8 °F 35.1 °F 42.8 °F 100% 29.91 in 1.8 mi NNE 16.1 mph 23.0 mph 0.00 in   Overcast
6:35 PM 42.8 °F 34.8 °F 42.8 °F 100% 29.89 in 3.0 mi NNE 17.3 mph 23.0 mph 0.00 in   Overcast
6:55 PM 44.6 °F 38.8 °F 44.6 °F 100% 29.88 in 5.0 mi NNE 11.5 mph 23.0 mph 0.00 in Rain Light Rain
7:15 PM 44.6 °F 37.8 °F 44.6 °F 100% 29.88 in 9.0 mi NNE 15.0 mph 23.0 mph 0.00 in   Overcast
7:35 PM 44.6 °F 36.9 °F 44.6 °F 100% 29.87 in 10.0 mi NNE 18.4 mph 25.3 mph 0.00 in   Overcast
7:55 PM 44.6 °F 38.8 °F 44.6 °F 100% 29.87 in 2.0 mi NNE 11.5 mph - 0.00 in Rain Rain
8:15 PM 44.6 °F 39.7 °F 44.6 °F 100% 29.87 in 2.0 mi North 9.2 mph - 0.00 in   Overcast
8:35 PM 44.6 °F 38.4 °F 44.6 °F 100% 29.86 in 5.0 mi North 12.7 mph 17.3 mph 0.00 in   Overcast
8:55 PM 44.6 °F 38.4 °F 44.6 °F 100% 29.86 in 10.0 mi North 12.7 mph 16.1 mph 0.00 in   Overcast
9:15 PM 44.6 °F 38.1 °F 44.6 °F 100% 29.86 in 8.0 mi North 13.8 mph 19.6 mph 0.00 in   Overcast
9:35 PM 44.6 °F 38.1 °F 44.6 °F 100% 29.85 in 10.0 mi North 13.8 mph 17.3 mph 0.00 in   Overcast
9:55 PM 44.6 °F 38.1 °F 44.6 °F 100% 29.84 in 10.0 mi North 13.8 mph 19.6 mph 0.00 in   Overcast
10:15 PM 44.6 °F 38.8 °F 44.6 °F 100% 29.82 in 10.0 mi North 11.5 mph 18.4 mph 0.00 in   Overcast
10:35 PM 44.6 °F 38.8 °F 44.6 °F 100% 29.83 in 10.0 mi North 11.5 mph 19.6 mph 0.00 in   Overcast
10:55 PM 44.6 °F 37.8 °F 44.6 °F 100% 29.81 in 10.0 mi North 15.0 mph - 0.00 in   Overcast
11:15 PM 44.6 °F 38.8 °F 44.6 °F 100% 29.82 in 10.0 mi North 11.5 mph 21.9 mph 0.00 in   Overcast
11:35 PM 44.6 °F 38.4 °F 44.6 °F 100% 29.83 in 10.0 mi NW 12.7 mph - 0.00 in   Overcast
11:55 PM 44.6 °F 38.4 °F 44.6 °F 100% 29.82 in 10.0 mi North 12.7 mph 18.4 mph 0.00 in   Overcast